Погода в Мосоро

Бразилия     5°11′10″S   37°20′27″W
темп.,
°C
ветер,
м/с
пор.,
м/с
влажн.,
%
обл.,
%
осадки,
мм/ч
давл.,
гПа
погр.,
м
26 июля, пн
пн2600:00+23вюв613720 0.0 1015419
03:00+22юв410800 0.0 1014286
06:00+21ююв38840 0.0 1015279
09:00+29юв685144 0.0 10161485
12:00+31юв5742100 0.0 10142083
15:00+29всв4652100 0.1 1012809
18:00+28вюв5105073 0.0 1013411
21:00+27вюв5105436 0.0 1015433
27 июля, вт
вт2700:00+23вюв512755 0.0 1015390
03:00+21юв37855 0.0 1014179
06:00+20ююв34875 0.0 101569
09:00+29вюв56465 0.0 10161163
12:00+35вюв45285 0.0 10122456
15:00+33ссв874113 0.0 10101316
18:00+26св612748 0.0 1012425
21:00+27в5105912 0.0 1014371
28 июля, ср
ср2800:00+23в498030 0.0 1014295
03:00+22в38908 0.0 1013196
06:00+22юв24905 0.0 101489
09:00+30юв56512 0.0 10151215
12:00+35юв343591 0.0 10122643
15:00+28св796276 0.1 1011448
18:00+27всв4772100 0.5 1012242
21:00+24в5118120 1.1 1014319
29 июля, чт
чт2900:00+23в5118427 0.0 1014332
03:00+22вюв268895 0.0 1013180
06:00+23вюв388872 0.0 1015308
09:00+30вюв675719 0.0 10161157
12:00+34в764381 0.1 10142206
15:00+30св775356 0.1 1012778
18:00+26всв7117169 0.1 1013493
21:00+24всв497414 0.2 1015290
30 июля, пт
пт3000:00+22в358190 0.0 1015140
03:00+22в248855 0.0 1014129
06:00+22вюв268952 0.0 1016194
09:00+30вюв565210 0.0 10171166
12:00+35юв56308 0.0 10142535
15:00+32св874598 0.0 1012896
18:00+26св6117379 0.0 1014367
21:00+27в8145991 0.0 1015713